Theta_e
341 342 344 345 345 346 347 347 346 347 348 348 346 343 342 346 346 345 347 347 340 329 323 321 323 323 320 321 320 324 327 332 333 333 330 330 330 330 329 329 328 326 328
341 342 343 343 344 345 345 346 346 346 347 348 347 345 342 343 344 344 346 347 343 331 331 325 321 322 323 322 320 320 320 328 333 332 334 330 331 330 329 329 329 327 326
343 342 343 343 344 344 344 345 346 346 346 347 348 346 343 340 344 342 345 347 345 340 341 342 342 336 325 323 324 323 323 322 326 332 333 331 329 330 330 330 329 327 327
343 343 343 343 343 344 344 345 345 346 346 347 348 348 340 340 342 341 342 347 346 342 343 343 344 344 342 332 324 326 327 327 328 329 333 333 329 330 330 332 332 329 327
343 343 342 343 343 344 344 344 345 346 346 346 347 348 345 339 341 341 341 347 346 346 345 345 346 345 345 343 331 327 328 330 332 333 335 333 333 328 327 332 330 330 327
341 341 342 343 343 343 343 343 344 345 346 346 347 348 348 339 338 340 341 345 347 347 347 347 347 347 346 345 344 340 328 328 332 335 336 335 333 330 328 331 331 330 329
341 341 342 343 343 343 344 344 343 344 345 345 346 347 348 346 336 338 339 340 345 346 347 349 349 349 349 347 346 344 337 331 330 333 335 333 333 333 332 329 329 327 328
341 341 342 343 342 343 345 345 344 344 344 345 346 346 347 346 340 337 338 341 341 344 346 347 349 350 349 349 347 346 341 338 332 331 332 333 331 332 331 329 327 327 328
340 341 342 342 343 344 345 345 345 345 344 344 346 346 345 344 342 342 340 340 342 342 344 346 348 348 349 348 347 346 343 341 334 332 334 333 332 332 331 328 327 327 327
341 341 342 342 343 343 343 345 346 347 345 345 345 346 346 344 343 343 344 342 344 345 345 344 347 349 352 352 348 346 345 341 335 333 335 333 331 330 330 328 327 324 322
341 342 343 343 344 346 348 350 350 350 352 346 346 345 346 346 346 345 346 348 344 343 345 344 346 349 354 350 347 345 341 338 335 335 333 330 329 329 328 320 316 318 320
339 340 341 342 344 346 348 347 340 351 354 354 354 350 346 347 347 347 347 347 349 346 341 344 347 353 353 349 344 338 335 336 336 334 330 328 328 327 320 318 317 316 316
341 342 343 344 345 347 349 350 351 353 353 352 356 355 354 352 348 349 349 350 351 349 348 348 351 352 350 344 337 335 336 335 335 332 329 328 327 323 319 318 317 317 317
339 340 342 345 347 349 352 355 353 352 340 334 354 356 355 352 352 351 352 351 351 348 352 351 351 347 341 336 335 336 335 334 333 331 329 328 325 320 319 318 318 318 318
343 346 345 344 345 348 349 350 352 350 344 341 351 351 356 352 352 354 355 353 352 350 350 349 344 337 335 336 336 335 333 330 328 328 328 327 321 320 320 319 318 319 315
332 332 334 341 350 353 351 349 352 353 351 352 350 355 353 346 352 350 354 345 335 331 338 341 337 336 337 337 334 332 329 327 327 326 325 322 320 320 321 319 318 315 313
334 333 338 337 349 354 350 351 354 356 355 356 347 345 349 354 351 349 347 337 334 336 339 336 337 336 337 334 330 328 328 328 326 322 322 322 322 321 319 317 314 312 309
334 334 334 348 349 349 349 352 354 355 357 356 356 354 355 349 342 336 333 331 333 332 330 336 337 337 337 331 328 329 328 324 322 323 321 318 317 316 315 313 312 309 308
338 338 340 341 344 346 347 347 348 353 353 352 346 344 342 341 336 334 334 333 330 329 336 337 339 338 336 330 328 326 323 321 321 318 317 316 315 314 313 311 308 306 305
330 330 334 336 334 337 337 335 333 333 337 345 338 336 334 334 333 332 331 331 332 334 337 339 337 336 334 330 325 322 321 320 318 317 316 314 312 310 310 308 307 306 306
333 334 333 332 331 329 329 330 331 330 332 331 329 332 332 332 333 333 337 338 337 337 336 333 332 331 328 325 323 320 320 319 317 316 314 312 311 307 307 307 306 306 305
336 335 334 332 331 331 332 330 330 330 331 331 331 331 331 338 338 339 337 337 335 332 326 323 322 322 322 321 320 319 319 317 316 315 313 312 311 307 307 306 306 306 305
336 336 336 335 334 333 329 331 333 333 333 331 333 334 334 334 335 336 334 328 324 321 320 320 320 321 320 319 319 319 317 317 316 315 313 312 311 308 306 306 306 305 304
333 333 334 334 336 336 336 336 336 335 336 336 336 336 336 335 334 328 323 321 321 320 321 320 319 319 320 320 318 317 317 316 316 314 313 311 309 307 306 305 304 302 303
331 330 331 331 332 332 331 331 331 330 332 335 334 333 332 329 327 326 324 322 321 320 320 319 319 318 318 318 318 317 316 316 315 314 312 308 307 304 304 303 302 302 302
328 329 330 331 329 329 329 330 330 330 330 331 330 330 328 330 330 330 328 324 323 322 321 319 319 319 319 318 318 317 316 315 314 313 309 304 304 304 303 302 301 301 302
Wind_Speed
47 46 46 47 47 46 47 41 36 34 32 31 31 30 31 28 25 25 24 21 21 20 20 19 16 15 17 17 16 16 16 15 11 9 10 9 10 11 10 9 9 8 9
52 50 49 46 47 47 46 43 38 37 36 34 33 34 33 33 30 29 28 26 24 23 20 21 19 19 18 18 18 18 17 17 15 13 11 13 11 12 13 12 12 11 11
53 54 53 51 51 51 48 45 42 39 38 36 35 36 36 36 36 33 30 29 27 25 24 22 19 20 21 21 20 19 17 16 17 16 12 14 15 16 16 16 14 14 16
48 51 53 54 54 53 50 48 46 43 41 39 38 36 37 37 38 37 34 33 31 29 27 26 25 25 23 22 22 21 20 17 17 18 15 13 15 14 17 15 15 19 21
47 47 47 47 49 51 51 50 49 47 44 41 40 40 38 39 40 40 38 36 36 33 31 30 30 28 25 23 22 23 23 21 20 18 15 16 14 18 19 18 21 21 23
46 45 44 44 45 47 47 47 46 48 47 45 45 43 42 42 44 44 41 39 39 37 36 33 32 29 27 28 22 22 24 25 24 19 17 17 18 18 20 18 15 16 19
47 45 46 45 45 44 45 46 45 47 47 48 47 47 46 45 46 45 42 43 41 39 37 35 34 32 27 29 25 25 25 24 24 23 23 21 20 20 19 20 18 20 18
46 46 46 47 45 45 46 47 46 47 49 50 49 49 48 47 47 46 44 43 45 42 40 38 37 32 28 27 28 29 28 25 24 22 20 18 16 16 18 17 18 18 21
41 43 46 45 47 47 48 48 48 48 50 52 51 50 50 50 49 46 43 44 47 46 42 40 38 31 31 27 29 30 28 26 23 19 19 17 15 16 16 17 16 16 13
40 42 43 42 43 44 48 48 48 50 51 52 53 51 50 49 50 45 41 42 48 47 43 43 36 33 31 28 30 30 28 26 23 20 18 16 15 15 16 16 12 12 12
36 37 40 41 42 41 40 40 43 45 47 50 55 53 51 50 48 45 42 41 47 46 44 43 36 33 31 27 29 28 26 23 21 18 16 15 14 14 14 11 10 7 7
31 32 33 36 36 35 37 36 34 42 37 37 42 52 55 53 49 47 42 42 43 44 44 38 35 31 28 28 27 24 22 20 20 18 16 15 15 13 12 9 7 8 9
18 19 21 24 28 32 35 35 38 39 30 29 39 41 38 47 51 47 42 39 39 39 36 31 29 29 28 26 24 23 23 22 22 19 16 14 13 12 12 11 10 9 11
12 15 17 20 23 26 31 31 36 36 38 46 52 45 44 42 44 45 46 42 39 38 33 31 30 28 26 25 24 24 24 24 22 16 14 14 16 15 13 12 11 11 13
5 9 14 19 23 27 30 33 39 43 45 44 52 45 49 36 40 46 37 33 28 33 27 26 26 27 29 25 25 27 26 23 19 16 15 16 18 15 14 13 13 13 11
9 11 14 18 21 26 33 37 41 42 43 39 41 44 46 38 42 39 33 31 33 12 15 28 28 30 26 27 28 29 24 21 18 15 16 18 16 14 13 14 14 13 10
12 14 14 14 17 26 35 38 42 44 38 42 46 47 40 40 37 39 42 23 11 29 35 30 32 32 32 31 31 28 23 21 17 17 18 17 14 13 15 13 13 11 9
12 16 16 14 12 22 29 38 44 44 49 44 52 46 38 37 32 28 22 19 26 43 45 37 39 33 33 30 29 23 21 20 18 19 17 16 14 15 15 12 11 9 9
11 12 12 13 12 15 22 30 40 49 46 48 47 43 37 32 28 27 21 27 40 48 38 40 35 29 30 29 25 23 20 19 20 18 17 16 16 16 11 10 9 11 11
19 19 8 11 12 7 6 2 2 9 32 59 54 46 41 42 41 39 38 41 39 45 39 32 29 29 28 27 25 21 21 22 20 16 15 15 15 12 10 11 9 9 10
6 9 15 10 7 4 10 6 7 3 8 13 18 34 36 40 41 44 46 41 35 36 36 34 30 29 27 26 23 23 24 22 18 16 14 14 14 12 12 12 9 9 11
16 9 3 7 10 7 4 3 6 13 20 24 21 26 32 31 33 37 33 31 30 32 29 27 27 26 26 25 24 25 22 18 14 12 13 11 11 13 13 13 10 11 11
20 16 7 4 2 6 7 4 6 14 14 19 28 30 28 27 26 28 30 29 29 28 26 26 24 24 23 23 24 20 17 15 12 12 10 8 10 13 14 12 12 12 11
16 16 17 17 12 13 12 6 6 9 10 15 20 22 22 21 25 27 27 27 27 26 25 23 23 22 22 24 24 21 16 15 16 14 11 9 11 16 15 13 12 12 11
18 15 13 11 10 12 14 14 12 11 11 10 13 19 19 19 19 21 24 26 26 27 25 23 21 19 21 25 25 22 20 15 17 14 11 13 14 16 15 14 13 11 11
15 17 16 16 17 14 10 9 4 4 4 3 6 8 13 16 15 15 18 24 26 26 26 25 25 23 22 24 23 20 17 18 17 13 9 11 14 15 14 14 14 12 12
Wind_Direction
234 234 235 237 237 235 236 237 235 237 234 233 234 233 234 235 235 235 236 237 236 237 238 242 246 247 247 251 255 259 258 251 249 258 267 276 266 260 254 265 273 281 275
234 234 234 235 237 237 235 236 234 234 235 232 234 233 232 232 233 235 237 237 235 234 235 240 243 248 249 249 250 254 259 257 253 256 254 268 269 259 256 266 274 273 273
234 234 236 236 237 238 237 235 233 232 232 232 232 234 232 231 231 233 235 237 236 235 237 239 242 246 248 250 250 251 254 254 254 249 250 260 270 265 263 271 270 271 280
235 235 235 236 238 239 239 238 235 232 232 232 232 235 234 232 231 232 234 236 234 234 237 240 242 243 246 248 249 252 249 250 254 256 251 253 263 262 262 262 263 270 282
233 236 239 239 238 240 240 238 236 233 231 232 232 233 236 234 231 230 232 234 234 236 239 242 244 246 248 251 247 250 246 244 242 245 246 253 248 261 262 263 271 281 289
235 240 241 239 238 238 238 237 235 235 232 231 232 232 233 235 232 231 232 235 235 237 240 244 247 250 251 252 251 252 246 242 241 241 247 252 258 270 264 265 267 287 294
233 238 239 237 238 236 236 235 232 232 231 231 231 231 233 235 235 233 231 234 237 239 242 245 249 253 252 251 250 248 245 241 239 246 250 256 265 275 269 272 278 288 292
234 234 237 238 239 238 235 235 232 227 228 228 230 230 232 236 237 235 233 234 240 242 244 247 250 253 252 246 241 241 240 241 234 237 247 259 271 264 259 265 284 287 291
238 238 238 239 240 239 239 237 233 229 227 226 228 231 232 234 237 237 235 235 241 243 243 246 247 248 247 235 238 237 238 238 231 230 236 249 259 250 250 272 279 280 284
238 241 245 243 240 241 243 242 239 235 230 228 227 230 234 236 239 238 235 236 241 244 244 245 244 245 243 236 235 234 231 233 225 226 237 253 246 248 253 269 266 264 273
246 246 246 248 249 250 245 244 247 244 238 233 231 228 232 236 239 240 236 234 238 243 243 244 242 240 240 229 232 229 233 224 221 221 231 232 232 245 255 255 268 261 259
246 250 253 254 252 247 247 244 235 248 240 243 243 237 233 232 233 238 236 238 241 240 242 244 240 237 230 230 222 223 218 214 222 217 208 220 228 236 230 247 267 283 277
243 251 253 253 253 248 245 238 236 231 225 267 252 247 245 243 235 233 232 231 238 240 245 242 237 227 221 219 212 211 216 221 217 209 210 217 228 212 233 243 251 270 283
255 256 253 248 245 242 236 227 232 223 210 216 235 239 240 240 249 233 230 214 221 223 225 226 232 211 205 202 208 211 216 215 213 208 208 217 219 219 233 245 253 271 283
251 261 255 249 246 241 237 235 237 228 228 226 231 228 223 232 238 239 221 199 197 223 201 205 195 197 199 199 207 208 205 207 206 203 209 218 215 221 235 250 257 269 272
263 262 266 266 247 237 241 240 238 237 245 239 229 227 228 240 230 234 212 187 175 298 234 207 192 201 205 207 206 204 199 204 203 203 211 215 216 224 226 250 260 265 263
293 285 276 266 255 242 249 242 234 236 240 233 233 231 241 233 230 220 196 208 216 207 191 206 213 210 212 207 204 202 203 204 200 201 211 220 220 223 236 246 258 259 255
316 301 292 273 269 261 257 243 237 230 222 220 224 223 214 197 172 178 179 168 178 196 190 195 202 208 205 203 202 202 198 194 197 204 210 220 227 236 243 237 241 235 244
16 5 353 350 301 254 239 236 237 227 217 200 179 168 170 178 187 205 214 192 186 189 203 197 200 198 200 199 201 195 192 198 199 199 213 224 232 235 225 226 228 241 251
65 51 48 74 82 75 139 159 254 256 193 184 169 167 171 177 185 185 181 183 172 205 203 197 192 194 198 195 190 191 193 193 200 211 228 229 231 227 216 222 218 242 260
330 16 23 41 57 109 89 146 186 15 290 276 189 161 178 184 182 180 182 190 171 193 194 188 184 189 189 190 191 194 193 199 208 216 223 225 229 223 219 221 219 239 253
28 35 299 51 79 81 102 110 155 179 205 203 179 161 166 173 170 179 177 176 175 188 184 179 179 184 190 195 194 190 193 201 210 222 219 219 227 226 216 211 219 239 249
46 42 39 31 13 94 109 209 158 167 174 168 168 165 170 177 182 175 171 172 175 175 175 176 180 188 192 190 190 191 194 195 217 215 224 231 235 225 217 211 220 237 240
66 62 60 58 62 87 105 118 105 106 123 159 168 167 170 170 172 171 169 169 174 172 175 179 184 189 191 187 185 187 192 201 221 227 233 247 227 226 213 209 223 228 230
82 73 68 70 70 67 65 65 68 71 76 132 164 171 169 173 172 174 176 177 178 181 183 185 185 182 186 195 195 194 203 212 223 235 255 243 222 217 210 216 222 226 231
76 81 87 86 76 76 73 56 41 228 161 168 175 190 195 192 182 190 194 192 191 191 190 192 194 192 191 198 205 203 211 214 224 236 242 228 218 218 222 227 232 226 217